| time (UTC) | temp C | wind direction | speed KPH | gust KPH | rain 1hr cm | rain 24hr cm | rain mn cm | humidity % | barometer mb |
| 20260504045640 | 8 | 285 | 0.0 | 0.0 | 0.00 | 0.00 | 0.00 | 89 | 1016.6 |
| 20260504045140 | 8 | 284 | 0.0 | 0.0 | 0.00 | 0.00 | 0.00 | 89 | 1016.6 |
| 20260504044640 | 8 | 285 | 0.0 | 0.0 | 0.00 | 0.00 | 0.00 | 89 | 1016.6 |
| 20260504044140 | 8 | 285 | 0.0 | 0.0 | 0.00 | 0.00 | 0.00 | 89 | 1016.7 |
| 20260504043639 | 8 | 285 | 0.0 | 0.0 | 0.00 | 0.00 | 0.00 | 89 | 1016.6 |
| 20260504043140 | 8 | 284 | 0.0 | 0.0 | 0.00 | 0.00 | 0.00 | 88 | 1016.5 |
| 20260504042639 | 8 | 285 | 0.0 | 0.0 | 0.00 | 0.00 | 0.00 | 88 | 1016.5 |
| 20260504042140 | 8 | 285 | 0.0 | 0.0 | 0.00 | 0.00 | 0.00 | 88 | 1016.5 |
| 20260504041640 | 8 | 285 | 0.0 | 0.0 | 0.00 | 0.00 | 0.00 | 88 | 1016.5 |
| 20260504041137 | 9 | 285 | 0.0 | 0.0 | 0.00 | 0.00 | 0.00 | 87 | 1016.4 |
| 20260504040637 | 9 | 285 | 0.0 | 0.0 | 0.00 | 0.00 | 0.00 | 87 | 1016.4 |
| 20260504035638 | 9 | 284 | 0.0 | 0.0 | 0.00 | 0.00 | 0.00 | 87 | 1016.4 |
| 20260504035136 | 9 | 285 | 0.0 | 0.0 | 0.00 | 0.00 | 0.00 | 86 | 1016.5 |
| 20260504034637 | 9 | 285 | 0.0 | 0.0 | 0.00 | 0.00 | 0.00 | 86 | 1016.4 |
| 20260504033637 | 10 | 284 | 0.0 | 0.0 | 0.00 | 0.00 | 0.00 | 85 | 1016.6 |
| 20260504033137 | 10 | 285 | 0.0 | 0.0 | 0.00 | 0.00 | 0.00 | 85 | 1016.6 |
| 20260504032637 | 10 | 284 | 0.0 | 0.0 | 0.00 | 0.00 | 0.00 | 85 | 1016.6 |
| 20260504032137 | 10 | 284 | 0.0 | 0.0 | 0.00 | 0.00 | 0.00 | 84 | 1016.6 |
| 20260504031635 | 10 | 285 | 0.0 | 0.0 | 0.00 | 0.00 | 0.00 | 84 | 1016.5 |
| 20260504031133 | 10 | 284 | 0.0 | 0.0 | 0.00 | 0.00 | 0.00 | 83 | 1016.5 |
| 20260504030633 | 10 | 284 | 0.0 | 0.0 | 0.00 | 0.00 | 0.00 | 83 | 1016.4 |
| 20260504025634 | 10 | 285 | 0.0 | 0.0 | 0.00 | 0.00 | 0.00 | 83 | 1016.4 |
| 20260504025133 | 10 | 284 | 0.0 | 0.0 | 0.00 | 0.00 | 0.00 | 82 | 1016.4 |
| 20260504024633 | 10 | 284 | 0.0 | 0.0 | 0.00 | 0.00 | 0.00 | 82 | 1016.4 |
| 20260504023634 | 11 | 285 | 0.0 | 0.0 | 0.00 | 0.00 | 0.00 | 80 | 1016.3 |
| 20260504023133 | 11 | 284 | 0.0 | 0.0 | 0.00 | 0.00 | 0.00 | 80 | 1016.2 |
| 20260504022130 | 11 | 285 | 0.0 | 0.0 | 0.00 | 0.00 | 0.00 | 79 | 1016.1 |
| 20260504020631 | 11 | 285 | 0.0 | 0.0 | 0.00 | 0.00 | 0.00 | 77 | 1015.8 |
| 20260504020132 | 12 | 285 | 0.0 | 0.0 | 0.00 | 0.00 | 0.00 | 76 | 1015.7 |
| 20260504015630 | 12 | 284 | 0.0 | 0.0 | 0.00 | 0.00 | 0.00 | 75 | 1015.7 |
| 20260504015128 | 12 | 285 | 0.0 | 0.0 | 0.00 | 0.00 | 0.00 | 74 | 1015.6 |
| 20260504014629 | 12 | 285 | 0.0 | 0.0 | 0.00 | 0.00 | 0.00 | 72 | 1015.4 |
| 20260504014128 | 12 | 284 | 0.0 | 0.0 | 0.00 | 0.00 | 0.00 | 72 | 1015.3 |
| 20260504013629 | 12 | 284 | 0.0 | 0.0 | 0.00 | 0.00 | 0.00 | 71 | 1015.3 |
| 20260504013129 | 13 | 285 | 0.0 | 0.0 | 0.00 | 0.00 | 0.00 | 71 | 1015.2 |
| 20260504012629 | 13 | 284 | 0.0 | 0.0 | 0.00 | 0.00 | 0.00 | 70 | 1015.1 |
| 20260504012128 | 13 | 285 | 0.0 | 0.0 | 0.00 | 0.00 | 0.00 | 69 | 1015.1 |
| 20260504011628 | 13 | 285 | 0.0 | 0.0 | 0.00 | 0.00 | 0.00 | 69 | 1015.0 |
| 20260504010629 | 14 | 284 | 0.0 | 0.0 | 0.00 | 0.00 | 0.00 | 66 | 1015.0 |
| 20260504005628 | 15 | 285 | 0.0 | 0.0 | 0.00 | 0.00 | 0.00 | 64 | 1014.9 |
| 20260504005130 | 15 | 285 | 0.0 | 0.0 | 0.00 | 0.00 | 0.00 | 62 | 1014.9 |
| 20260504004630 | 15 | 284 | 0.0 | 0.0 | 0.00 | 0.00 | 0.00 | 61 | 1014.8 |
| 20260504004128 | 15 | 285 | 0.0 | 0.0 | 0.00 | 0.00 | 0.00 | 60 | 1014.7 |
| 20260504003628 | 16 | 285 | 0.0 | 0.0 | 0.00 | 0.00 | 0.00 | 58 | 1014.7 |
| 20260504003128 | 16 | 284 | 0.0 | 0.0 | 0.00 | 0.00 | 0.00 | 57 | 1014.6 |
| 20260504002127 | 17 | 285 | 0.0 | 0.0 | 0.00 | 0.00 | 0.00 | 53 | 1014.6 |
| 20260504001626 | 17 | 284 | 0.0 | 0.0 | 0.00 | 0.00 | 0.00 | 52 | 1014.6 |
| 20260504000628 | 18 | 285 | 0.0 | 0.0 | 0.00 | 0.00 | 0.00 | 45 | 1014.5 |
| 20260503235127 | 20 | 284 | 0.0 | 1.6 | 0.00 | 0.00 | 0.00 | 43 | 1014.4 |
| 20260503234625 | 20 | 285 | 0.0 | 1.6 | 0.00 | 0.00 | 0.00 | 43 | 1014.5 |
| 20260503234125 | 20 | 284 | 0.0 | 1.6 | 0.00 | 0.00 | 0.00 | 39 | 1014.5 |
| 20260503233626 | 20 | 288 | 0.0 | 0.0 | 0.00 | 0.00 | 0.00 | 42 | 1014.5 |
| 20260503233124 | 20 | 288 | 0.0 | 1.6 | 0.00 | 0.00 | 0.00 | 41 | 1014.5 |
| 20260503232624 | 21 | 267 | 0.0 | 1.6 | 0.00 | 0.00 | 0.00 | 38 | 1014.5 |
| 20260503231624 | 21 | 277 | 1.6 | 6.4 | 0.00 | 0.00 | 0.00 | 37 | 1014.5 |
| 20260503231125 | 21 | 298 | 1.6 | 6.4 | 0.00 | 0.00 | 0.00 | 35 | 1014.5 |
| 20260503230622 | 21 | 267 | 0.0 | 3.2 | 0.00 | 0.00 | 0.00 | 35 | 1014.6 |
| 20260503225622 | 21 | 311 | 0.0 | 1.6 | 0.00 | 0.00 | 0.00 | 35 | 1014.6 |
| 20260503225120 | 21 | 298 | 0.0 | 3.2 | 0.00 | 0.00 | 0.00 | 35 | 1014.5 |
| 20260503224621 | 21 | 248 | 1.6 | 4.8 | 0.00 | 0.00 | 0.00 | 35 | 1014.6 |
| 20260503224122 | 21 | 310 | 1.6 | 4.8 | 0.00 | 0.00 | 0.00 | 35 | 1014.6 |
| 20260503223620 | 22 | 211 | 0.0 | 4.8 | 0.00 | 0.00 | 0.00 | 35 | 1014.5 |
| 20260503223120 | 22 | 248 | 0.0 | 4.8 | 0.00 | 0.00 | 0.00 | 34 | 1014.5 |
| 20260503222120 | 22 | 338 | 0.0 | 6.4 | 0.00 | 0.00 | 0.00 | 37 | 1014.6 |
| 20260503221620 | 22 | 277 | 0.0 | 6.4 | 0.00 | 0.00 | 0.00 | 35 | 1014.6 |
| 20260503221121 | 22 | 275 | 0.0 | 3.2 | 0.00 | 0.00 | 0.00 | 35 | 1014.7 |
| 20260503220620 | 22 | 242 | 0.0 | 6.4 | 0.00 | 0.00 | 0.00 | 34 | 1014.7 |
| 20260503215619 | 22 | 328 | 0.0 | 4.8 | 0.00 | 0.00 | 0.00 | 34 | 1014.8 |
| 20260503215118 | 22 | 329 | 0.0 | 3.2 | 0.00 | 0.00 | 0.00 | 35 | 1014.9 |
| 20260503214618 | 22 | 298 | 0.0 | 4.8 | 0.00 | 0.00 | 0.00 | 36 | 1014.9 |
| 20260503214118 | 22 | 298 | 0.0 | 4.8 | 0.00 | 0.00 | 0.00 | 34 | 1014.8 |
| 20260503213616 | 22 | 44 | 0.0 | 6.4 | 0.00 | 0.00 | 0.00 | 37 | 1014.8 |
| 20260503213116 | 22 | 327 | 0.0 | 6.4 | 0.00 | 0.00 | 0.00 | 34 | 1015.0 |
| 20260503212616 | 22 | 319 | 0.0 | 6.4 | 0.00 | 0.00 | 0.00 | 39 | 1015.0 |
| 20260503212116 | 22 | 317 | 1.6 | 4.8 | 0.00 | 0.00 | 0.00 | 36 | 1015.0 |
| 20260503211616 | 22 | 317 | 1.6 | 4.8 | 0.00 | 0.00 | 0.00 | 35 | 1015.0 |
| 20260503211116 | 22 | 327 | 0.0 | 6.4 | 0.00 | 0.00 | 0.00 | 35 | 1015.0 |
| 20260503210616 | 21 | 319 | 0.0 | 6.4 | 0.00 | 0.00 | 0.00 | 36 | 1015.1 |
| 20260503210115 | 21 | 324 | 1.6 | 4.8 | 0.00 | 0.00 | 0.00 | 36 | 1015.1 |
| 20260503205613 | 21 | 330 | 1.6 | 16.1 | 0.00 | 0.00 | 0.00 | 36 | 1015.2 |
| 20260503205114 | 21 | 309 | 1.6 | 16.1 | 0.00 | 0.00 | 0.00 | 37 | 1015.2 |
| 20260503204613 | 21 | 301 | 0.0 | 4.8 | 0.00 | 0.00 | 0.00 | 37 | 1015.2 |
| 20260503204114 | 21 | 334 | 1.6 | 6.4 | 0.00 | 0.00 | 0.00 | 35 | 1015.3 |
| 20260503203614 | 22 | 313 | 0.0 | 6.4 | 0.00 | 0.00 | 0.00 | 34 | 1015.3 |
| 20260503203113 | 22 | 300 | 0.0 | 3.2 | 0.00 | 0.00 | 0.00 | 34 | 1015.3 |
| 20260503202111 | 21 | 319 | 1.6 | 9.7 | 0.00 | 0.00 | 0.00 | 35 | 1015.4 |
| 20260503201612 | 21 | 284 | 1.6 | 6.4 | 0.00 | 0.00 | 0.00 | 35 | 1015.7 |
| 20260503201111 | 21 | 323 | 1.6 | 11.3 | 0.00 | 0.00 | 0.00 | 36 | 1015.7 |
| 20260503200613 | 21 | 273 | 1.6 | 11.3 | 0.00 | 0.00 | 0.00 | 35 | 1015.8 |
| 20260503200112 | 22 | 317 | 0.0 | 4.8 | 0.00 | 0.00 | 0.00 | 36 | 1015.8 |
| 20260503195612 | 22 | 299 | 0.0 | 4.8 | 0.00 | 0.00 | 0.00 | 35 | 1015.9 |
| 20260503195111 | 21 | 304 | 0.0 | 4.8 | 0.00 | 0.00 | 0.00 | 36 | 1015.9 |
| 20260503194612 | 21 | 291 | 0.0 | 4.8 | 0.00 | 0.00 | 0.00 | 38 | 1016.0 |
| 20260503194113 | 21 | 316 | 0.0 | 1.6 | 0.00 | 0.00 | 0.00 | 38 | 1016.1 |
| 20260503193611 | 21 | 311 | 1.6 | 4.8 | 0.00 | 0.00 | 0.00 | 37 | 1016.2 |
| 20260503193112 | 21 | 273 | 1.6 | 4.8 | 0.00 | 0.00 | 0.00 | 36 | 1016.4 |
| 20260503192612 | 21 | 290 | 0.0 | 4.8 | 0.00 | 0.00 | 0.00 | 37 | 1016.4 |
| 20260503192112 | 21 | 290 | 0.0 | 1.6 | 0.00 | 0.00 | 0.00 | 36 | 1016.5 |
| 20260503191611 | 21 | 101 | 0.0 | 1.6 | 0.00 | 0.00 | 0.00 | 38 | 1016.6 |
| 20260503191113 | 21 | 49 | 0.0 | 1.6 | 0.00 | 0.00 | 0.00 | 37 | 1016.7 |
| 20260503190611 | 21 | 341 | 0.0 | 3.2 | 0.00 | 0.00 | 0.00 | 36 | 1016.7 |
| 20260503190109 | 21 | 308 | 0.0 | 3.2 | 0.00 | 0.00 | 0.00 | 36 | 1016.8 |
| 20260503185609 | 20 | 175 | 1.6 | 3.2 | 0.00 | 0.00 | 0.00 | 37 | 1016.9 |
| 20260503185107 | 20 | 336 | 1.6 | 3.2 | 0.00 | 0.00 | 0.00 | 41 | 1017.1 |
| 20260503184607 | 20 | 324 | 1.6 | 3.2 | 0.00 | 0.00 | 0.00 | 39 | 1017.1 |
| 20260503184105 | 20 | 267 | 0.0 | 4.8 | 0.00 | 0.00 | 0.00 | 38 | 1017.2 |
| 20260503183605 | 20 | 284 | 0.0 | 4.8 | 0.00 | 0.00 | 0.00 | 38 | 1017.3 |
| 20260503183107 | 20 | 142 | 0.0 | 4.8 | 0.00 | 0.00 | 0.00 | 35 | 1017.4 |
| 20260503182602 | 20 | 348 | 1.6 | 6.4 | 0.00 | 0.00 | 0.00 | 36 | 1017.5 |
| 20260503181101 | 20 | 296 | 0.0 | 4.8 | 0.00 | 0.00 | 0.00 | 39 | 1017.6 |
| 20260503180601 | 20 | 312 | 1.6 | 4.8 | 0.00 | 0.00 | 0.00 | 37 | 1017.6 |
| 20260503180101 | 20 | 300 | 1.6 | 9.7 | 0.00 | 0.00 | 0.00 | 41 | 1017.6 |
| 20260503175559 | 19 | 15 | 1.6 | 12.9 | 0.00 | 0.00 | 0.00 | 37 | 1017.6 |
| 20260503175059 | 19 | 265 | 1.6 | 12.9 | 0.00 | 0.00 | 0.00 | 39 | 1017.7 |
| 20260503174557 | 19 | 258 | 0.0 | 1.6 | 0.00 | 0.00 | 0.00 | 43 | 1017.7 |
| 20260503174058 | 19 | 309 | 0.0 | 4.8 | 0.00 | 0.00 | 0.00 | 44 | 1017.7 |
| 20260503173057 | 19 | 238 | 0.0 | 3.2 | 0.00 | 0.00 | 0.00 | 43 | 1017.8 |
| 20260503172557 | 19 | 173 | 0.0 | 4.8 | 0.00 | 0.00 | 0.00 | 41 | 1017.9 |
| 20260503172058 | 19 | 270 | 1.6 | 4.8 | 0.00 | 0.00 | 0.00 | 40 | 1018.0 |
| 20260503171555 | 19 | 221 | 0.0 | 3.2 | 0.00 | 0.00 | 0.00 | 40 | 1018.0 |
| 20260503171056 | 19 | 278 | 0.0 | 1.6 | 0.00 | 0.00 | 0.00 | 42 | 1018.0 |
| 20260503170556 | 18 | 199 | 0.0 | 1.6 | 0.00 | 0.00 | 0.00 | 40 | 1018.1 |
| 20260503150551 | 16 | 321 | 0.0 | 0.0 | 0.00 | 0.00 | 0.00 | 46 | 1018.7 |
| 20260503131045 | 12 | 326 | 0.0 | 0.0 | 0.00 | 0.00 | 0.00 | 70 | 1018.2 |
| 20260503130542 | 12 | 355 | 0.0 | 0.0 | 0.00 | 0.00 | 0.00 | 70 | 1018.2 |
| 20260503110538 | 5 | 9 | 0.0 | 0.0 | 0.00 | 0.05 | 0.00 | 93 | 1017.4 |
| 20260503081029 | 6 | 5 | 0.0 | 0.0 | 0.00 | 0.13 | 0.00 | 92 | 1016.1 |
| 20260503080529 | 6 | 5 | 0.0 | 0.0 | 0.00 | 0.13 | 0.00 | 92 | 1016.1 |
| 20260503072529 | 6 | 5 | 0.0 | 0.0 | 0.00 | 0.15 | 0.00 | 91 | 1015.8 |
| 20260503072029 | 6 | 0 | 0.0 | 0.0 | 0.00 | 0.15 | 0.00 | 91 | 1015.7 |
| 20260503071529 | 6 | 0 | 0.0 | 0.0 | 0.00 | 0.15 | 0.00 | 91 | 1015.7 |
| 20260503071030 | 6 | 5 | 0.0 | 0.0 | 0.00 | 0.18 | 0.00 | 91 | 1015.6 |
| 20260503070529 | 6 | 5 | 0.0 | 0.0 | 0.00 | 0.18 | 0.00 | 91 | 1015.6 |
| 20260503054524 | 7 | 5 | 0.0 | 0.0 | 0.00 | 0.28 | 0.00 | 90 | 1015.4 |
| 20260503053021 | 7 | 5 | 0.0 | 0.0 | 0.00 | 0.30 | 0.00 | 89 | 1015.4 |
| 20260503052522 | 7 | 0 | 0.0 | 0.0 | 0.00 | 0.30 | 0.00 | 89 | 1015.3 |
| 20260503052022 | 7 | 5 | 0.0 | 0.0 | 0.00 | 0.30 | 0.00 | 89 | 1015.4 |
| 20260503051521 | 7 | 5 | 0.0 | 0.0 | 0.00 | 0.30 | 0.00 | 89 | 1015.3 |
| 20260503051021 | 7 | 5 | 0.0 | 0.0 | 0.00 | 0.30 | 0.00 | 89 | 1015.3 |
| 20260503050521 | 7 | 0 | 0.0 | 0.0 | 0.00 | 0.30 | 0.00 | 88 | 1015.2 |
| 20260503050019 | 7 | 5 | 0.0 | 0.0 | 0.00 | 0.30 | 0.00 | 88 | 1015.1 |